period_start,C,m1,H,J0,J1,J2,J3,J4,J5,JA,JB,JC,JD,JJ,JK,JN,#
2018-07-31 00:02:33,0.01,1.72,0.00,29.55,32.92,35.30,13.52,44.58,1008.95,2002.00,2806.97,2578.87,2945.01,600.20,578.82,44.40,0000 0000 0000 0000 000000
2018-07-31 00:07:34,0.02,1.72,0.00,29.57,32.93,35.30,13.47,44.38,1009.05,2001.99,2806.78,2578.50,2944.99,599.67,578.38,44.45,0000 0000 0000 0000 000000
2018-07-31 00:12:35,0.02,1.72,0.00,29.60,32.95,35.33,13.52,44.34,1008.97,2001.96,2806.34,2578.09,2944.87,600.52,579.18,44.50,0000 0000 0000 0000 000000
2018-07-31 00:17:36,0.01,1.73,0.00,29.63,32.95,35.39,13.40,44.40,1008.87,2001.92,2806.01,2578.01,2944.22,599.86,578.51,44.55,0000 0000 0000 0000 000000
2018-07-31 00:22:38,-0.02,1.72,0.00,29.65,32.97,35.41,13.42,44.40,1008.84,2001.70,2806.01,2578.00,2944.04,599.93,578.39,44.60,0000 0000 0000 0000 000000
2018-07-31 00:27:39,-0.03,1.72,0.00,29.56,32.97,35.41,13.47,44.36,1008.83,2001.39,2806.01,2578.00,2944.03,600.30,578.72,44.66,0000 0000 0000 0000 000000
2018-07-31 00:32:40,-0.02,1.72,0.00,29.43,32.97,35.44,13.38,44.32,1008.87,2001.13,2806.00,2578.00,2944.00,599.49,578.38,44.71,0000 0000 0000 0000 000000
2018-07-31 00:37:41,0.03,1.72,0.00,29.34,32.97,35.52,13.49,44.41,1008.83,2001.21,2805.55,2577.94,2944.00,599.97,579.00,44.76,0000 0000 0000 0000 000000
2018-07-31 00:42:42,-0.03,1.72,0.00,29.32,32.96,35.51,13.50,44.48,1008.81,2001.14,2805.55,2577.92,2943.99,600.17,579.28,44.81,0000 0000 0000 0000 000000
2018-07-31 00:47:44,0.05,1.72,0.00,29.32,32.95,35.46,13.42,44.33,1008.80,2001.25,2805.12,2577.72,2943.96,599.75,578.99,44.86,0000 0000 0000 0000 000000
2018-07-31 00:52:45,0.02,1.72,0.00,29.34,32.95,35.42,13.44,44.45,1008.80,2001.39,2805.00,2577.42,2943.82,599.81,578.96,44.91,0000 0000 0000 0000 000000
2018-07-31 00:57:46,0.02,1.73,0.00,29.35,32.95,35.37,13.47,44.51,1008.80,2001.47,2805.00,2577.13,2943.26,599.97,578.95,44.96,0000 0000 0000 0000 000000
2018-07-31 01:02:47,0.02,1.73,0.00,29.37,32.93,35.35,13.44,44.46,1008.80,2001.61,2804.76,2577.02,2943.02,599.99,578.99,45.01,0000 0000 0000 0000 000000
2018-07-31 01:07:48,0.00,1.73,0.00,29.38,32.92,35.31,13.46,44.50,1008.80,2001.52,2804.23,2577.00,2943.00,600.09,579.11,45.06,0000 0000 0000 0000 000000
2018-07-31 01:12:49,0.01,1.73,0.00,29.40,32.92,35.30,13.43,44.51,1008.80,2001.58,2804.02,2577.00,2942.99,600.32,579.32,45.11,0000 0000 0000 0000 000000
2018-07-31 01:17:50,0.01,1.73,0.00,29.42,32.92,35.29,13.55,44.51,1008.80,2001.65,2804.00,2576.99,2942.92,600.13,579.03,45.16,0000 0000 0000 0000 000000
2018-07-31 01:22:52,0.02,1.73,0.00,29.42,32.92,35.29,13.41,44.51,1008.80,2001.85,2804.00,2576.98,2942.76,600.08,578.85,45.21,0000 0000 0000 0000 000000
2018-07-31 01:27:53,0.01,1.73,0.00,29.43,32.90,35.29,13.47,44.41,1008.80,2001.89,2803.95,2576.92,2942.37,599.87,578.79,45.26,0000 0000 0000 0000 000000
2018-07-31 01:32:54,0.01,1.73,0.00,29.45,32.90,35.29,13.47,44.49,1008.79,2001.88,2803.68,2576.66,2942.04,600.00,578.81,45.31,0000 0000 0000 0000 000000
2018-07-31 01:37:56,0.02,1.73,0.00,29.45,32.90,35.29,13.46,44.47,1008.78,2001.80,2803.12,2576.21,2942.00,599.92,578.86,45.36,0000 0000 0000 0000 000000
2018-07-31 01:42:57,-0.03,1.73,0.00,29.47,32.90,35.29,13.46,44.38,1008.80,2001.56,2803.01,2576.01,2941.96,599.88,578.67,45.41,0000 0000 0000 0000 000000
2018-07-31 01:47:58,0.05,1.73,0.00,29.47,32.90,35.30,13.50,44.38,1008.80,2001.79,2802.89,2576.00,2941.65,600.16,578.98,45.46,0000 0000 0000 0000 000000
2018-07-31 01:53:00,0.02,1.73,0.00,29.48,32.91,35.30,13.38,44.32,1008.77,2001.78,2802.31,2575.99,2941.12,599.60,578.44,45.51,0000 0000 0000 0000 000000
2018-07-31 01:58:01,0.00,1.73,0.00,29.48,32.92,35.30,13.43,44.51,1008.66,2001.62,2802.00,2575.84,2941.00,600.08,578.86,45.56,0000 0000 0000 0000 000000
2018-07-31 02:03:02,0.00,1.73,0.00,29.50,32.92,35.32,13.51,44.45,1008.71,2001.49,2801.97,2575.39,2940.96,599.84,578.59,45.62,0000 0000 0000 0000 000000
2018-07-31 02:08:04,0.05,1.74,0.00,29.50,32.92,35.31,13.46,44.27,1008.74,2001.58,2801.32,2575.05,2940.54,599.75,578.70,45.67,0000 0000 0000 0000 000000
2018-07-31 02:13:05,-0.00,1.74,0.00,29.50,32.92,35.32,13.34,44.35,1008.78,2001.61,2801.00,2575.00,2940.05,599.66,578.34,45.72,0000 0000 0000 0000 000000
2018-07-31 02:18:06,-0.02,1.74,0.00,29.50,32.92,35.33,13.48,44.34,1008.80,2001.36,2800.96,2575.00,2940.00,600.01,578.83,45.77,0000 0000 0000 0000 000000
2018-07-31 02:23:08,0.01,1.74,0.00,29.50,32.92,35.33,13.44,44.36,1008.80,2001.13,2800.60,2574.82,2939.79,599.95,578.70,45.82,0000 0000 0000 0000 000000
2018-07-31 02:28:09,0.04,1.74,0.00,29.50,32.92,35.33,13.46,44.42,1008.80,2001.10,2800.01,2574.10,2939.05,599.98,578.68,45.87,0000 0000 0000 0000 000000
2018-07-31 02:33:11,0.04,1.74,0.00,29.50,32.93,35.34,13.47,44.47,1008.79,2001.15,2799.43,2573.96,2938.62,600.01,578.67,45.92,0000 0000 0000 0000 000000
2018-07-31 02:38:12,0.05,1.74,0.00,29.52,32.94,35.35,13.49,44.61,1008.80,2001.33,2798.93,2573.25,2938.02,600.32,579.02,45.97,0000 0000 0000 0000 000000
2018-07-31 02:43:13,0.02,1.74,0.00,29.54,32.95,35.34,13.45,44.61,1008.79,2001.23,2798.23,2573.01,2937.77,600.07,578.89,46.02,0000 0000 0000 0000 000000
2018-07-31 02:48:14,0.00,1.74,0.00,29.55,32.95,35.35,13.36,44.47,1008.77,2001.10,2797.99,2572.96,2937.07,600.08,578.71,46.07,0000 0000 0000 0000 000000
2018-07-31 02:53:15,0.02,1.75,0.00,29.57,32.95,35.36,13.51,44.63,1008.77,2001.05,2797.68,2572.53,2936.98,600.36,578.88,46.12,0000 0000 0000 0000 000000
2018-07-31 02:58:16,0.03,1.75,0.00,29.59,32.95,35.36,13.43,44.51,1008.72,2001.01,2797.05,2572.03,2936.41,600.11,578.65,46.17,0000 0000 0000 0000 000000
2018-07-31 03:03:18,0.00,1.75,0.00,29.60,32.97,35.36,13.49,44.56,1008.73,2001.01,2796.99,2572.00,2936.01,600.26,578.73,46.22,0000 0000 0000 0000 000000
2018-07-31 03:08:19,0.02,1.75,0.00,29.62,32.97,35.37,13.49,44.57,1008.69,2001.01,2796.64,2571.91,2935.97,599.94,578.39,46.27,0000 0000 0000 0000 000000
2018-07-31 03:13:21,0.02,1.75,0.00,29.63,32.97,35.37,13.45,44.38,1008.76,2001.00,2796.27,2571.74,2935.73,600.09,578.51,46.32,0000 0000 0000 0000 000000
2018-07-31 03:18:22,0.02,1.75,0.00,29.65,32.99,35.39,13.39,44.14,1008.74,2001.00,2796.00,2571.15,2935.12,599.84,578.34,46.37,0000 0000 0000 0000 000000
2018-07-31 03:23:23,0.00,1.75,0.00,29.65,33.00,35.39,13.47,44.33,1008.56,2001.00,2795.93,2571.01,2935.00,600.17,578.54,46.42,0000 0000 0000 0000 000000
2018-07-31 03:28:24,0.02,1.75,0.00,29.65,33.00,35.40,13.43,44.27,1008.49,2001.00,2795.29,2571.00,2934.87,600.26,578.58,46.47,0000 0000 0000 0000 000000
2018-07-31 03:33:26,0.02,1.75,0.00,29.67,33.01,35.40,13.44,44.46,1008.49,2001.00,2794.95,2570.74,2934.13,600.06,578.30,46.53,0000 0000 0000 0000 000000
2018-07-31 03:38:27,0.04,1.76,0.00,29.67,33.02,35.42,13.37,44.28,1008.38,2001.00,2794.16,2570.13,2934.00,599.76,577.85,46.58,0000 0000 0000 0000 000000
2018-07-31 03:43:28,0.01,1.76,0.00,29.67,33.02,35.43,13.48,44.46,1008.34,2001.00,2793.98,2570.00,2933.76,599.97,578.13,46.63,0000 0000 0000 0000 000000
2018-07-31 03:48:29,0.04,1.76,0.00,29.69,33.03,35.44,13.38,44.47,1008.34,2001.00,2793.35,2569.82,2933.07,599.83,578.02,46.68,0000 0000 0000 0000 000000
2018-07-31 03:53:30,0.03,1.76,0.00,29.70,33.05,35.44,13.40,44.40,1008.34,2000.99,2792.94,2569.06,2932.68,599.72,577.84,46.73,0000 0000 0000 0000 000000
2018-07-31 03:58:32,0.02,1.76,0.00,29.72,33.05,35.45,13.37,44.38,1008.33,2000.99,2792.32,2568.99,2932.03,599.92,577.99,46.78,0000 0000 0000 0000 000000
2018-07-31 04:03:33,0.00,1.76,0.00,29.74,33.06,35.45,13.40,44.36,1008.32,2000.99,2792.01,2568.93,2932.00,599.90,577.84,46.83,0000 0000 0000 0000 000000
2018-07-31 04:08:34,0.02,1.76,0.00,29.75,33.07,35.47,13.43,44.47,1008.32,2000.98,2791.97,2568.46,2931.77,599.74,577.60,46.88,0000 0000 0000 0000 000000
2018-07-31 04:13:35,0.03,1.77,0.00,29.77,33.08,35.48,13.47,44.60,1008.32,2000.98,2791.37,2568.04,2931.06,600.33,578.26,46.93,0000 0000 0000 0000 000000
2018-07-31 04:18:37,0.00,1.77,0.00,29.79,33.10,35.49,13.40,44.39,1008.33,2000.97,2791.01,2567.99,2930.99,599.69,577.64,46.98,0000 0000 0000 0000 000000
2018-07-31 04:23:38,0.02,1.77,0.00,29.80,33.10,35.50,13.46,44.47,1008.32,2000.94,2790.81,2567.83,2930.50,599.96,577.76,47.03,0000 0000 0000 0000 000000
2018-07-31 04:28:39,0.03,1.77,0.00,29.80,33.12,35.51,13.48,44.42,1008.32,2000.94,2790.20,2567.29,2930.06,600.05,577.93,47.08,0000 0000 0000 0000 000000
2018-07-31 04:33:40,0.00,1.77,0.00,29.80,33.12,35.52,13.39,44.41,1008.32,2000.91,2789.99,2567.00,2929.98,600.00,577.94,47.13,0000 0000 0000 0000 000000
2018-07-31 04:38:41,0.01,1.77,0.00,29.81,33.13,35.54,13.44,44.67,1008.32,2000.82,2789.69,2567.00,2929.58,599.77,577.67,47.18,0000 0000 0000 0000 000000
2018-07-31 04:43:42,-0.01,1.77,0.00,29.82,33.15,35.55,13.44,44.49,1008.32,2000.52,2789.07,2566.93,2929.06,599.77,577.70,47.23,0000 0000 0000 0000 000000
2018-07-31 04:48:43,0.01,1.77,0.00,29.82,33.15,35.55,13.44,44.62,1008.32,2000.27,2789.00,2566.51,2929.00,599.84,577.60,47.28,0000 0000 0000 0000 000000
2018-07-31 04:53:45,0.01,1.77,0.00,29.82,33.15,35.56,13.43,44.42,1008.32,2000.25,2788.98,2566.13,2928.99,600.05,577.86,47.33,0000 0000 0000 0000 000000
2018-07-31 04:58:46,0.01,1.77,0.00,29.82,33.17,35.57,13.44,44.33,1008.32,2000.28,2788.55,2566.02,2928.85,600.05,577.85,47.38,0000 0000 0000 0000 000000
2018-07-31 05:03:47,0.01,1.77,0.00,29.82,33.17,35.58,13.45,44.40,1008.32,2000.18,2788.03,2566.00,2928.28,599.98,577.75,47.43,0000 0000 0000 0000 000000
2018-07-31 05:08:48,0.00,1.77,0.00,29.82,33.17,35.59,13.48,44.38,1008.32,2000.11,2788.00,2565.99,2928.03,600.12,578.00,47.49,0000 0000 0000 0000 000000
2018-07-31 05:13:49,0.00,1.77,0.00,29.82,33.18,35.60,13.42,44.28,1008.32,2000.12,2787.94,2565.97,2928.00,599.90,577.77,47.54,0000 0000 0000 0000 000000
2018-07-31 05:18:50,0.01,1.77,0.00,29.82,33.20,35.60,13.36,44.33,1008.32,2000.09,2787.46,2565.86,2928.00,599.90,577.76,47.59,0000 0000 0000 0000 000000
2018-07-31 05:23:51,0.02,1.77,0.00,29.84,33.20,35.61,13.45,44.35,1008.32,2000.05,2787.04,2565.36,2927.91,600.19,578.03,47.64,0000 0000 0000 0000 000000
2018-07-31 05:28:52,0.02,1.77,0.00,29.85,33.20,35.61,13.44,44.46,1008.32,2000.03,2787.00,2565.08,2927.38,599.92,577.75,47.69,0000 0000 0000 0000 000000
2018-07-31 05:33:54,0.01,1.77,0.00,29.85,33.20,35.62,13.45,44.42,1008.32,2000.06,2786.98,2565.00,2927.04,599.50,577.40,47.74,0000 0000 0000 0000 000000
2018-07-31 05:38:55,0.01,1.77,0.00,29.85,33.21,35.62,13.51,44.45,1008.32,2000.05,2786.34,2565.00,2927.00,600.37,578.16,47.79,0000 0000 0000 0000 000000
2018-07-31 05:43:57,0.00,1.78,0.00,29.87,33.22,35.62,13.49,44.48,1008.32,2000.03,2786.03,2564.98,2926.94,600.31,577.98,47.84,0000 0000 0000 0000 000000
2018-07-31 05:48:58,0.00,1.78,0.00,29.87,33.22,35.63,13.40,44.27,1008.32,2000.03,2786.00,2564.96,2926.69,599.96,577.69,47.89,0000 0000 0000 0000 000000
2018-07-31 05:53:59,0.02,1.78,0.00,29.87,33.22,35.63,13.44,44.33,1008.32,2000.02,2785.99,2564.77,2926.25,600.12,577.76,47.94,0000 0000 0000 0000 000000
2018-07-31 05:59:00,0.01,1.78,0.00,29.87,33.23,35.64,13.49,44.27,1008.32,2000.00,2785.92,2564.34,2926.01,600.39,578.16,47.99,0000 0000 0000 0000 000000
2018-07-31 06:04:02,0.02,1.78,0.00,29.87,33.25,35.66,13.47,44.43,1008.32,2000.00,2785.24,2564.07,2926.00,600.13,577.95,48.04,0000 0000 0000 0000 000000
2018-07-31 06:09:03,0.00,1.78,0.00,29.87,33.25,35.65,13.48,44.27,1008.32,2000.00,2785.03,2564.01,2925.99,600.23,577.97,48.09,0000 0000 0000 0000 000000
2018-07-31 06:14:05,0.00,1.78,0.00,29.87,33.25,35.66,13.49,44.28,1008.33,2000.00,2785.00,2564.00,2925.94,600.26,578.07,48.14,0000 0000 0000 0000 000000
2018-07-31 06:19:06,0.00,1.78,0.00,29.89,33.25,35.67,13.41,44.22,1008.33,2000.00,2784.99,2564.00,2925.57,600.14,577.85,48.19,0000 0000 0000 0000 000000
2018-07-31 06:24:07,0.01,1.78,0.00,29.90,33.26,35.67,13.47,44.28,1008.33,2000.00,2784.89,2564.00,2925.07,599.75,577.61,48.24,0000 0000 0000 0000 000000
2018-07-31 06:29:09,0.01,1.78,0.00,29.90,33.27,35.67,13.39,44.11,1008.35,2000.00,2784.27,2563.94,2925.00,599.95,577.77,48.29,0000 0000 0000 0000 000000
2018-07-31 06:34:10,0.01,1.78,0.00,29.90,33.27,35.67,13.43,44.20,1008.34,2000.00,2784.02,2563.71,2924.99,600.04,577.77,48.34,0000 0000 0000 0000 000000
2018-07-31 06:39:11,0.00,1.78,0.00,29.90,33.27,35.68,13.38,44.16,1008.32,2000.00,2784.00,2563.45,2924.97,599.56,577.14,48.39,0000 0000 0000 0000 000000
2018-07-31 06:44:12,0.01,1.78,0.00,29.90,33.27,35.68,13.46,44.27,1008.32,2000.00,2784.00,2563.48,2924.91,600.30,577.96,48.44,0000 0000 0000 0000 000000
2018-07-31 06:49:14,0.02,1.78,0.00,29.90,33.28,35.68,13.43,44.28,1008.32,2000.00,2783.99,2563.16,2924.47,599.90,577.66,48.50,0000 0000 0000 0000 000000
2018-07-31 06:54:15,0.01,1.78,0.00,29.90,33.29,35.69,13.46,44.33,1008.32,2000.00,2783.84,2563.03,2924.07,600.32,578.02,48.55,0000 0000 0000 0000 000000
2018-07-31 06:59:16,0.01,1.78,0.00,29.90,33.30,35.70,13.45,44.45,1008.32,2000.00,2783.18,2563.00,2924.00,599.98,577.76,48.60,0000 0000 0000 0000 000000
2018-07-31 07:04:17,0.00,1.78,0.00,29.91,33.30,35.70,13.37,44.27,1008.32,1999.99,2783.01,2563.00,2923.99,599.58,577.21,48.65,0000 0000 0000 0000 000000
2018-07-31 07:09:19,0.00,1.78,0.00,29.92,33.30,35.70,13.53,44.37,1008.32,1999.99,2783.00,2563.00,2923.98,599.99,577.69,48.70,0000 0000 0000 0000 000000
2018-07-31 07:14:20,0.01,1.78,0.00,29.93,33.30,35.71,13.50,44.38,1008.32,1999.99,2782.80,2562.96,2923.68,600.24,577.96,48.75,0000 0000 0000 0000 000000
2018-07-31 07:19:21,0.01,1.79,0.00,29.93,33.31,35.71,13.44,44.25,1008.32,1999.98,2782.28,2562.89,2923.20,600.04,577.81,48.80,0000 0000 0000 0000 000000
2018-07-31 07:24:22,0.02,1.79,0.00,29.95,33.32,35.71,13.39,44.25,1008.31,1999.99,2782.05,2562.52,2923.02,600.00,577.57,48.85,0000 0000 0000 0000 000000
2018-07-31 07:29:23,0.01,1.79,0.00,29.95,33.32,35.72,13.40,44.32,1008.31,1999.99,2782.00,2562.13,2923.00,599.61,577.25,48.90,0000 0000 0000 0000 000000
2018-07-31 07:34:25,0.00,1.79,0.00,29.95,33.32,35.72,13.47,44.40,1008.31,1999.97,2781.99,2562.03,2922.99,600.38,577.92,48.95,0000 0000 0000 0000 000000
2018-07-31 07:39:26,0.00,1.79,0.00,29.95,33.32,35.72,13.43,44.51,1008.31,1999.98,2781.96,2562.02,2922.96,599.59,577.20,49.00,0000 0000 0000 0000 000000
2018-07-31 07:44:27,0.01,1.79,0.00,29.96,33.32,35.73,13.43,44.44,1008.31,1999.95,2781.55,2562.00,2922.69,600.02,577.64,49.05,0000 0000 0000 0000 000000
2018-07-31 07:49:28,0.02,1.79,0.00,29.98,33.33,35.74,13.39,44.21,1008.31,1999.97,2781.14,2562.00,2922.32,599.91,577.56,49.10,0000 0000 0000 0000 000000
2018-07-31 07:54:29,-0.00,1.79,0.00,30.00,33.34,35.73,13.47,44.33,1008.31,1999.95,2781.00,2561.99,2922.05,600.30,577.87,49.15,0000 0000 0000 0000 000000
2018-07-31 07:59:30,-0.01,1.79,0.00,30.00,33.35,35.73,13.39,44.30,1008.31,1999.88,2780.99,2561.96,2922.00,600.19,577.71,49.20,0000 0000 0000 0000 000000
2018-07-31 08:04:32,0.01,1.79,0.00,30.01,33.35,35.74,13.45,44.38,1008.32,1999.85,2780.91,2561.87,2921.99,599.63,577.26,49.25,0000 0000 0000 0000 000000
2018-07-31 08:09:33,0.01,1.79,0.00,30.02,33.35,35.75,13.39,44.42,1008.32,1999.80,2780.46,2561.64,2921.90,599.99,577.53,49.30,0000 0000 0000 0000 000000
2018-07-31 08:14:34,0.12,1.79,0.00,30.01,33.35,35.75,13.34,44.20,1008.32,1999.85,2779.43,2560.74,2920.81,599.60,577.05,49.35,0000 0000 0000 0000 000000
2018-07-31 08:19:35,0.18,1.81,0.00,30.00,33.36,35.76,13.50,44.38,1008.32,1999.63,2776.19,2557.78,2917.05,600.42,577.94,49.41,0000 0000 0000 0000 000000
2018-07-31 08:24:36,0.03,1.81,0.00,30.00,33.37,35.77,13.41,44.19,1008.32,1999.67,2776.00,2557.33,2916.65,599.96,577.44,49.46,0000 0000 0000 0000 000000
2018-07-31 08:29:38,-0.01,1.81,0.00,29.98,33.37,35.77,13.42,44.38,1008.33,1999.43,2775.91,2557.06,2916.09,599.71,577.34,49.51,0000 0000 0000 0000 000000
2018-07-31 08:34:39,0.10,1.81,0.00,29.97,33.37,35.78,13.40,44.48,1008.34,1999.29,2774.43,2556.07,2914.55,600.07,577.59,49.56,0000 0000 0000 0000 000000
2018-07-31 08:39:40,0.01,1.81,0.00,29.97,33.37,35.78,13.38,44.38,1008.34,1999.22,2773.98,2555.42,2914.00,600.00,577.63,49.61,0000 0000 0000 0000 000000
2018-07-31 08:44:42,0.02,1.81,0.00,29.97,33.37,35.79,13.37,44.44,1008.38,1999.30,2773.86,2555.15,2914.00,599.72,577.42,49.66,0000 0000 0000 0000 000000
2018-07-31 08:49:43,0.01,1.81,0.00,29.97,33.37,35.79,13.47,44.48,1008.54,1999.19,2773.35,2555.05,2913.95,600.13,577.80,49.71,0000 0000 0000 0000 000000
2018-07-31 08:54:44,0.00,1.81,0.00,29.97,33.37,35.79,13.42,44.40,1008.50,1999.21,2773.09,2555.03,2913.83,599.98,577.67,49.76,0000 0000 0000 0000 000000
2018-07-31 08:59:46,0.01,1.81,0.00,29.96,33.37,35.79,13.41,44.24,1008.57,1999.16,2773.01,2555.00,2913.53,599.95,577.75,49.81,0000 0000 0000 0000 000000
2018-07-31 09:04:47,-0.00,1.81,0.00,29.96,33.37,35.79,13.45,44.40,1008.71,1999.15,2773.00,2555.00,2913.24,600.16,577.96,49.86,0000 0000 0000 0000 000000
2018-07-31 09:09:49,0.01,1.82,0.00,29.97,33.37,35.78,13.47,44.36,1008.74,1999.22,2773.00,2555.00,2913.07,600.08,577.85,49.91,0000 0000 0000 0000 000000
2018-07-31 09:14:50,0.01,1.82,0.00,29.97,33.37,35.79,13.45,44.32,1008.76,1999.33,2773.00,2555.00,2913.03,600.10,577.84,49.96,0000 0000 0000 0000 000000
2018-07-31 09:19:52,-0.02,1.82,0.00,29.97,33.37,35.79,13.43,44.33,1008.72,1999.24,2772.93,2555.00,2913.00,599.85,577.74,50.01,0000 0000 0000 0000 000000
2018-07-31 09:24:53,0.00,1.82,0.00,29.95,33.37,35.79,13.39,44.27,1008.56,1999.09,2772.51,2555.00,2913.00,600.10,577.85,50.06,0000 0000 0000 0000 000000
2018-07-31 09:29:54,0.01,1.82,0.00,29.95,33.37,35.79,13.45,44.33,1008.50,1999.08,2772.11,2554.99,2912.98,599.61,577.37,50.11,0000 0000 0000 0000 000000
2018-07-31 09:34:56,0.00,1.82,0.00,29.92,33.37,35.80,13.44,44.23,1008.53,1999.14,2772.05,2554.98,2912.98,600.30,577.97,50.16,0000 0000 0000 0000 000000
2018-07-31 09:39:57,0.01,1.82,0.00,29.91,33.37,35.80,13.40,44.24,1008.61,1999.12,2772.01,2554.98,2912.96,599.97,577.87,50.21,0000 0000 0000 0000 000000
2018-07-31 09:44:58,0.00,1.82,0.00,29.90,33.37,35.79,13.34,44.13,1008.54,1999.11,2772.00,2554.94,2912.77,599.82,577.65,50.26,0000 0000 0000 0000 000000
2018-07-31 09:49:59,0.01,1.82,0.00,29.89,33.37,35.79,13.39,44.18,1008.52,1999.24,2772.00,2554.98,2912.88,600.03,577.82,50.32,0000 0000 0000 0000 000000
2018-07-31 09:55:01,0.00,1.82,0.00,29.87,33.37,35.78,13.41,44.27,1008.57,1999.27,2772.00,2554.96,2912.65,599.87,577.78,50.37,0000 0000 0000 0000 000000
2018-07-31 10:00:02,0.01,1.82,0.00,29.85,33.36,35.79,13.44,44.17,1008.71,1999.31,2771.97,2554.94,2912.29,600.05,578.07,50.42,0000 0000 0000 0000 000000
2018-07-31 10:05:02,0.00,1.82,0.00,29.84,33.35,35.78,13.43,44.03,1008.76,1999.16,2771.67,2554.86,2912.05,600.18,578.28,50.47,0000 0000 0000 0000 000000
2018-07-31 10:10:04,0.02,1.82,0.00,29.82,33.35,35.77,13.40,44.10,1008.66,1999.30,2771.34,2554.81,2912.02,599.65,577.82,50.52,0000 0000 0000 0000 000000
2018-07-31 10:15:05,0.01,1.82,0.00,29.81,33.35,35.76,13.42,44.13,1008.53,1999.32,2771.09,2554.75,2912.00,599.82,577.83,50.57,0000 0000 0000 0000 000000
2018-07-31 10:20:06,0.02,1.82,0.00,29.80,33.33,35.76,13.51,44.25,1008.54,1999.59,2771.02,2554.78,2912.00,600.23,578.32,50.62,0000 0000 0000 0000 000000
2018-07-31 10:25:07,0.01,1.82,0.00,29.77,33.32,35.75,13.40,44.15,1008.55,1999.69,2771.00,2554.74,2912.00,599.93,578.04,50.67,0000 0000 0000 0000 000000
2018-07-31 10:30:08,-0.01,1.82,0.00,29.77,33.32,35.74,13.46,44.16,1008.57,1999.52,2771.00,2554.40,2912.00,600.04,578.13,50.72,0000 0000 0000 0000 000000
2018-07-31 10:35:09,0.02,1.82,0.00,29.75,33.32,35.73,13.45,44.29,1008.49,1999.71,2771.00,2554.54,2912.00,600.46,578.45,50.77,0000 0000 0000 0000 000000
2018-07-31 10:40:11,0.01,1.82,0.00,29.75,33.30,35.72,13.41,44.38,1008.51,1999.89,2771.00,2554.60,2912.00,599.46,577.67,50.82,0000 0000 0000 0000 000000
2018-07-31 10:45:12,0.01,1.82,0.00,29.74,33.30,35.71,13.38,44.19,1008.54,1999.92,2770.90,2554.50,2912.00,599.85,577.89,50.87,0000 0000 0000 0000 000000
2018-07-31 10:50:13,0.02,1.82,0.00,29.72,33.30,35.70,13.49,44.17,1008.56,1999.94,2770.57,2554.25,2911.95,600.19,578.18,50.92,0000 0000 0000 0000 000000
2018-07-31 10:55:15,0.00,1.82,0.00,29.72,33.28,35.68,13.35,44.07,1008.65,1999.97,2770.33,2554.31,2911.93,599.41,577.65,50.97,0000 0000 0000 0000 000000
2018-07-31 11:00:16,0.01,1.82,0.00,29.72,33.27,35.64,13.44,44.27,1008.72,1999.99,2770.07,2554.24,2911.84,599.85,578.14,51.02,0000 0000 0000 0000 000000
2018-07-31 11:05:18,-0.00,1.82,0.00,29.74,33.27,35.63,13.45,44.23,1008.76,1999.99,2770.04,2554.34,2911.77,600.01,578.24,51.07,0000 0000 0000 0000 000000
2018-07-31 11:10:19,0.02,1.83,0.00,29.78,33.27,35.63,13.49,44.21,1008.79,1999.99,2770.00,2554.05,2911.14,599.77,577.99,51.12,0000 0000 0000 0000 000000
2018-07-31 11:15:20,0.00,1.83,0.00,29.83,33.27,35.62,13.42,43.99,1008.79,1999.99,2769.99,2554.00,2911.02,599.83,577.89,51.17,0000 0000 0000 0000 000000
2018-07-31 11:20:21,0.00,1.83,0.00,29.89,33.27,35.62,13.36,44.12,1008.80,1999.99,2769.92,2554.00,2911.00,599.72,577.81,51.22,0000 0000 0000 0000 000000
2018-07-31 11:25:23,0.01,1.83,0.00,29.94,33.27,35.64,13.49,44.11,1008.80,1999.99,2769.29,2554.00,2910.96,600.18,578.06,51.28,0000 0000 0000 0000 000000
2018-07-31 11:30:24,0.00,1.83,0.00,29.95,33.27,35.66,13.46,44.12,1008.80,1999.99,2769.01,2554.00,2910.82,600.23,578.10,51.33,0000 0000 0000 0000 000000
2018-07-31 11:35:25,0.01,1.83,0.00,29.94,33.27,35.67,13.42,44.01,1008.80,1999.99,2769.00,2553.95,2910.19,599.82,577.73,51.38,0000 0000 0000 0000 000000
2018-07-31 11:40:26,0.01,1.83,0.00,29.91,33.27,35.70,13.47,44.13,1008.80,1999.99,2768.73,2553.81,2910.01,599.87,577.93,51.43,0000 0000 0000 0000 000000
2018-07-31 11:45:28,0.02,1.83,0.00,29.85,33.27,35.74,13.44,44.22,1008.80,1999.99,2768.12,2553.56,2910.00,599.71,577.76,51.48,0000 0000 0000 0000 000000
2018-07-31 11:50:29,0.01,1.83,0.00,29.78,33.27,35.75,13.49,44.08,1008.80,1999.99,2768.01,2553.35,2909.98,600.00,578.23,51.53,0000 0000 0000 0000 000000
2018-07-31 11:55:30,0.01,1.83,0.00,29.72,33.27,35.76,13.42,44.16,1008.79,1999.99,2768.00,2553.07,2909.89,600.02,578.39,51.58,0000 0000 0000 0000 000000
2018-07-31 12:00:32,0.01,1.83,0.00,29.66,33.26,35.76,13.45,44.05,1008.76,1999.99,2767.86,2553.04,2909.52,599.91,578.34,51.63,0000 0000 0000 0000 000000
2018-07-31 12:05:33,0.02,1.83,0.00,29.61,33.25,35.77,13.48,44.20,1008.72,1999.99,2767.24,2553.00,2909.07,600.44,578.93,51.68,0000 0000 0000 0000 000000
2018-07-31 12:10:34,0.00,1.83,0.00,29.58,33.24,35.78,13.42,44.18,1008.54,1999.99,2767.01,2553.00,2909.01,599.63,578.31,51.73,0000 0000 0000 0000 000000
2018-07-31 12:15:35,0.00,1.83,0.00,29.53,33.22,35.77,13.50,44.18,1008.42,1999.99,2767.00,2553.00,2909.00,599.90,578.37,51.78,0000 0000 0000 0000 000000
2018-07-31 12:20:36,0.00,1.83,0.00,29.49,33.21,35.76,13.47,44.23,1008.36,2000.00,2766.95,2553.00,2909.00,600.01,578.58,51.83,0000 0000 0000 0000 000000
2018-07-31 12:25:37,0.00,1.83,0.00,29.46,33.19,35.78,13.44,44.11,1008.34,2000.00,2766.72,2553.00,2908.98,599.97,578.57,51.88,0000 0000 0000 0000 000000
2018-07-31 12:30:39,0.01,1.83,0.00,29.44,33.17,35.76,13.44,44.23,1008.33,2000.01,2766.14,2553.00,2908.93,599.91,578.59,51.93,0000 0000 0000 0000 000000
2018-07-31 12:35:40,0.01,1.83,0.00,29.40,33.15,35.76,13.53,44.18,1008.32,2000.03,2766.01,2552.99,2908.70,600.07,578.82,51.98,0000 0000 0000 0000 000000
2018-07-31 12:40:41,0.01,1.83,0.00,29.36,33.13,35.82,13.49,44.19,1008.32,2000.08,2766.00,2552.99,2908.69,600.15,579.00,52.03,0000 0000 0000 0000 000000
2018-07-31 12:45:42,0.03,1.84,0.00,29.34,33.11,35.80,13.46,44.14,1008.32,2000.43,2766.00,2552.99,2908.70,599.86,578.65,52.08,0000 0000 0000 0000 000000
2018-07-31 12:50:43,0.01,1.84,0.00,29.31,33.09,35.77,13.48,44.33,1008.32,2000.51,2765.97,2552.99,2908.24,599.71,578.61,52.13,0000 0000 0000 0000 000000
2018-07-31 12:55:45,0.04,1.84,0.00,29.29,33.07,35.76,13.49,44.37,1008.31,2000.74,2765.83,2552.99,2908.07,600.11,578.98,52.18,0000 0000 0000 0000 000000